Flag for Norway Weather past 2 weeks in Leirvik, Norway

Now
48 °F

Cool.


Feels Like: 43 °F
Forecast: 44 / 47 °F
Wind: 13 mph from South

Location: Slatteroy Fyr

Current Time: May 6, 2015 at 2:29:16 AM

Latest Report: May 6, 2015 at 2:00 AM


Visibility: N/A

Pressure: 29.32 "Hg

Humidity: 82%

Dew point: 43 °F

Location of LeirvikLocation

Historic Weather in Leirvik — Graph

°F

Leirvik temperature yesterday

Maximum temperature yesterday: 58 °F (at 7:00 PM)
Minimum temperature yesterday: 47 °F (at 6:00 AM)
Average temperature yesterday: 51 °F

Past Weeks' High & Low Weather Summary

 TemperatureHumidityPressure
High58 °F (May 5, 7:00 PM)93% (Apr 21, 1:00 AM)30.46 "Hg (Apr 21, 1:00 AM)
Low36 °F (Apr 28, 5:00 AM)33% (May 4, 2:00 AM)29.15 "Hg (May 5, 7:00 PM)
Average44 °F78%29.77 "Hg
* Reported Apr 21 1:00 AM — May 6 1:00 AM, Leirvik, Weather by CustomWeather, © 2015

Note: Actual official high and low records may vary slightly from our data, if they occured in-between our weather recording intervals... More about our weather records

Advertising

Leirvik weather history for previous 24 hours

 ConditionsComfort  
Time TempWeatherWind HumidityBarometerVisibility
1:00 AM
Wed, May 6
49 °FCool.15 mph87%29.26 "HgN/A
12:00 AM51 °FCool.14 mph87%29.23 "HgN/A
11:00 PM
Tue, May 5
54 °FCool.8 mph75%29.18 "HgN/A
10:00 PM56 °FCool.8 mph67%29.18 "HgN/A
9:00 PM57 °FCool.9 mph62%29.18 "HgN/A
8:00 PM57 °FCool.12 mph61%29.18 "HgN/A
7:00 PM58 °FRefreshingly cool.12 mph59%29.15 "HgN/A
6:00 PM51 °FCool.10 mph77%29.18 "HgN/A
5:00 PM50 °FCool.15 mph82%29.23 "HgN/A
4:00 PM51 °FCool.9 mph74%29.29 "HgN/A
3:00 PM55 °FCool.3 mph61%29.38 "HgN/A
2:00 PM55 °FRefreshingly cool.5 mph59%29.41 "HgN/A
1:00 PM56 °FRefreshingly cool.8 mph54%29.44 "HgN/A
12:00 PM55 °FCool.6 mph60%29.47 "HgN/A
11:00 AM50 °FCool.6 mph80%29.54 "HgN/A
10:00 AM49 °FCool.6 mph84%29.57 "HgN/A
9:00 AM48 °FCool.6 mph86%29.59 "HgN/A
8:00 AM47 °FCool.6 mph88%29.61 "HgN/A
7:00 AM47 °FCool.3 mph88%29.62 "HgN/A
6:00 AM47 °FCool.3 mph87%29.64 "HgN/A
5:00 AM47 °FCool.5 mph87%29.65 "HgN/A
4:00 AM47 °FCool.5 mph86%29.66 "HgN/A
3:00 AM47 °FCool.6 mph87%29.67 "HgN/A
2:00 AM47 °FCool.6 mph88%29.67 "HgN/A
Weather by CustomWeather, © 2015

See weather overviewHow to use our weather pages